Location: ??? ?????
(30.6482°N, 60.5850°E)
Time: 05:07:21
(UTC+00:00)

NOSS 3-4 (A) - Pass Details

Date: 09 April 2020
Orbit: 892 x 1320 km, 63.4° (Epoch: 01 June)

Event Time Altitude Azimuth Distance (km) Brightness Sun altitude
Rises 15:54:25 0° 334° (NNW) 3,922 7.4 -19.9°
Reaches altitude 10° 15:57:02 10° 337° (NNW) 3,022 6.7 -20.4°
Maximum altitude 16:04:18 67° 60° (ENE) 1,312 3.9 -21.9°
Enters shadow 16:07:36 37° 129° (SE) 1,838 4.4 -22.5°
